Theta_e
354 351 339 336 341 343 341 338 331 326 327 329 333 333 333 334 339 339 342 337 334 333 333 333 329 328 329 335 337 344 348 345 345 343 342 341 339 336 333 331 330 330 331
354 351 335 335 339 341 342 341 338 328 327 331 333 333 335 336 337 339 337 329 332 334 332 328 332 334 336 342 344 347 347 344 341 343 340 337 335 334 333 332 331 330 330
355 349 339 334 338 339 340 341 341 333 327 331 333 332 334 335 336 333 328 331 334 333 330 334 338 340 341 344 345 348 345 340 340 341 342 337 332 334 333 331 331 331 329
352 347 346 335 338 339 340 342 342 338 328 331 332 332 334 334 333 330 328 332 334 332 330 336 340 341 343 346 346 346 344 340 341 342 341 336 331 332 332 331 330 330 330
351 344 348 334 337 339 341 342 342 338 329 330 332 332 333 333 334 331 330 331 333 332 331 338 340 340 343 347 347 346 344 340 341 341 335 333 330 331 330 330 329 329 327
350 348 340 333 337 339 341 342 342 335 330 331 333 332 334 333 335 334 331 330 332 332 331 338 339 340 345 347 347 346 343 341 342 339 336 330 329 331 330 330 329 328 328
351 352 340 331 336 338 340 341 341 338 333 334 335 333 334 333 335 336 331 332 331 331 330 338 340 341 346 347 347 347 341 341 343 339 335 331 329 330 329 329 328 328 328
353 350 344 326 330 335 338 340 341 340 338 340 338 335 334 334 335 336 331 332 332 329 331 338 340 344 345 346 347 346 341 341 341 339 336 330 330 330 329 328 328 327 326
355 353 348 342 331 329 334 338 338 339 340 340 338 335 334 333 336 336 331 332 332 329 330 339 341 344 346 347 347 345 341 341 342 338 335 331 330 330 328 328 327 327 325
353 356 354 351 346 341 338 330 333 336 337 338 337 335 333 334 337 335 330 331 332 329 329 338 341 344 345 346 346 345 343 341 339 338 333 329 330 329 328 327 327 325 324
348 350 352 354 353 349 347 341 329 330 333 334 335 333 334 340 344 342 334 336 330 331 328 337 341 343 345 346 346 345 344 343 340 338 334 329 330 329 328 328 326 325 324
346 347 348 349 352 354 352 354 344 343 341 341 340 343 339 337 343 343 340 337 328 332 328 334 338 341 343 348 346 345 345 344 341 339 334 330 331 329 327 327 325 325 323
338 345 347 351 355 354 353 356 353 348 345 342 341 341 339 337 341 341 344 341 337 334 338 334 340 344 347 349 349 347 347 344 342 339 332 329 331 329 328 327 326 325 323
329 337 346 355 359 360 351 354 354 354 352 348 345 344 344 341 342 342 338 341 338 338 336 337 336 340 344 350 351 350 348 344 342 339 333 328 331 330 328 326 328 325 324
324 329 335 345 356 360 361 353 352 354 353 351 350 349 347 344 342 342 339 339 338 338 337 339 337 338 341 343 350 350 349 346 343 340 336 329 331 330 328 327 328 325 325
323 324 329 339 346 351 351 353 353 353 355 352 352 350 349 346 344 341 341 341 340 338 337 338 338 336 339 340 345 350 348 347 345 341 338 332 329 330 328 327 327 325 324
324 323 326 333 342 350 351 352 351 349 353 353 352 352 351 350 345 343 342 341 340 341 339 338 338 339 337 338 341 347 348 348 346 343 339 335 330 330 329 327 327 325 324
325 325 328 327 336 348 349 351 350 350 354 352 352 350 350 350 347 344 341 342 341 342 342 341 340 339 339 336 337 345 347 348 348 344 340 337 334 332 329 328 327 326 324
326 327 329 331 330 344 353 350 351 353 353 352 350 350 350 349 348 348 346 345 345 344 343 343 341 341 341 340 337 340 348 347 347 344 340 340 337 334 332 328 326 327 324
327 329 330 334 335 343 345 346 341 341 342 345 348 350 350 349 347 348 344 343 344 347 344 342 343 343 342 342 340 340 346 349 347 345 341 340 339 335 333 331 326 326 324
328 330 331 335 340 345 341 338 335 333 334 335 338 343 344 344 346 347 345 345 346 345 343 343 345 345 343 344 342 345 347 347 346 345 344 341 340 338 333 333 331 328 326
330 331 333 337 345 348 340 335 332 330 331 331 331 334 335 337 340 342 343 341 344 344 344 341 341 344 345 342 344 343 348 348 345 345 343 342 340 338 335 333 333 330 328
330 331 334 340 345 348 340 337 340 338 337 332 330 333 335 339 340 342 343 342 343 346 340 346 344 343 342 342 345 343 348 349 346 346 345 343 340 339 337 334 332 333 331
328 331 332 338 344 347 343 338 341 336 333 329 328 330 332 335 337 339 343 344 344 342 340 341 345 345 342 343 344 345 344 341 349 352 345 344 341 340 338 336 334 333 331
328 329 332 337 343 344 345 342 341 339 331 329 329 333 338 339 338 339 339 341 343 343 341 341 342 343 344 343 340 342 343 343 346 350 352 347 342 340 339 337 335 332 331
329 329 331 334 338 342 342 346 345 343 337 334 334 334 331 328 335 337 337 339 341 342 342 342 342 342 343 343 341 338 342 346 345 344 350 349 346 342 340 338 337 332 331
Wind_Speed
11 16 17 16 14 17 18 17 17 18 21 22 21 19 20 19 17 14 14 14 14 12 11 10 9 9 10 10 11 14 13 13 14 11 12 14 16 16 14 14 13 14 14
19 17 18 18 16 16 18 17 17 18 21 22 20 19 18 18 16 15 13 13 13 12 10 10 10 10 10 10 10 12 13 12 12 10 14 22 17 16 16 16 15 14 14
19 18 17 18 17 16 17 19 18 18 20 21 20 19 17 16 15 14 13 12 12 11 10 10 9 9 9 9 11 10 11 11 13 10 6 15 14 14 15 15 14 14 14
19 17 16 18 16 15 16 19 20 19 21 20 19 18 16 15 15 14 13 11 10 10 10 9 8 8 8 9 12 11 9 10 9 5 6 12 11 12 13 13 14 13 13
17 17 17 19 17 15 14 18 21 19 21 20 18 18 16 14 14 14 12 11 9 9 9 9 7 6 7 10 11 11 9 10 11 12 13 13 11 11 12 13 13 14 13
18 16 16 19 17 14 15 18 20 20 20 19 18 17 15 13 12 13 12 11 9 8 8 7 7 6 6 9 10 9 9 7 4 13 12 13 12 12 12 12 12 12 12
17 16 18 19 17 16 15 17 18 19 19 18 16 16 14 13 11 11 12 11 9 8 8 7 6 7 8 9 8 9 8 6 2 11 11 12 11 12 12 12 11 12 13
16 16 17 20 18 17 17 17 18 17 17 17 16 14 13 12 11 10 11 11 9 8 8 6 6 8 9 9 7 9 8 7 5 9 10 11 11 11 11 11 11 12 12
15 17 17 16 18 19 18 18 18 17 17 16 16 15 14 13 11 10 11 11 9 9 8 7 6 7 9 9 8 7 7 4 7 7 11 8 10 10 11 11 11 12 13
14 15 16 16 16 15 16 19 18 18 17 17 17 16 14 13 12 11 10 11 10 9 9 8 7 9 10 10 9 7 7 7 7 6 9 10 11 10 10 10 11 12 13
14 16 16 15 14 14 13 14 17 17 17 17 17 17 16 11 11 10 10 12 11 10 9 9 8 9 10 9 8 6 8 3 5 6 6 10 11 10 9 10 10 10 11
15 14 15 14 15 14 14 13 14 14 14 14 14 14 15 14 13 13 13 13 11 11 10 10 9 9 9 9 9 8 6 5 3 5 8 10 10 10 10 10 11 10 11
19 14 10 12 8 13 12 12 12 14 13 14 16 16 16 15 14 13 11 11 11 13 10 10 10 10 11 13 12 10 8 6 4 6 9 10 11 10 10 9 8 9 9
10 6 13 15 12 12 11 13 12 14 14 13 15 16 15 15 15 14 15 13 13 13 13 13 13 12 13 20 12 10 12 8 6 6 11 11 11 11 10 9 8 8 8
11 6 9 10 11 11 11 12 12 10 15 12 14 16 16 16 14 14 14 13 13 14 13 13 12 12 11 11 12 14 14 8 9 8 9 13 12 11 10 9 7 6 6
12 14 11 12 11 10 10 9 9 12 9 14 13 13 16 15 15 14 14 13 12 12 12 12 12 11 13 14 15 13 14 12 12 11 11 13 12 12 11 9 8 6 5
12 12 12 9 10 10 9 10 11 11 10 15 11 10 13 16 15 15 13 14 14 12 11 11 10 12 12 14 15 13 16 12 15 13 12 13 13 13 11 9 8 7 5
14 13 11 12 13 11 10 11 10 10 10 9 9 12 14 15 15 17 15 12 12 13 13 13 12 13 14 15 16 13 17 18 18 15 14 15 14 13 13 12 10 7 5
15 15 14 13 12 10 9 8 9 9 10 11 12 11 12 14 16 15 13 13 13 13 14 13 15 15 15 15 17 18 18 12 16 15 16 14 14 16 15 16 13 11 8
17 16 17 15 13 13 12 10 10 11 11 11 10 6 8 12 11 13 14 12 15 11 17 17 16 15 18 16 18 15 14 7 8 12 16 16 15 13 11 17 15 13 12
15 16 19 18 17 16 16 14 11 11 10 10 9 10 9 10 12 11 12 10 11 15 19 17 9 12 18 19 16 7 6 7 9 15 17 17 16 15 14 16 15 17 15
19 19 20 20 20 20 18 16 12 9 9 9 11 11 9 9 10 10 10 10 12 13 14 15 18 15 22 24 10 13 3 7 15 18 19 20 18 17 16 16 15 19 18
21 20 20 21 23 22 18 16 10 6 7 7 10 9 13 11 10 11 11 12 10 11 13 17 20 23 23 26 14 10 5 6 14 17 22 19 19 19 17 16 18 14 9
22 19 21 22 22 22 20 18 17 17 15 16 12 6 9 7 9 12 13 14 14 15 13 14 15 20 23 24 17 25 24 17 1 4 16 21 20 20 19 16 19 16 16
20 21 19 21 22 20 21 20 19 18 16 14 10 6 3 6 9 11 11 13 15 16 18 16 14 18 22 26 24 16 16 24 17 8 4 9 18 21 20 21 18 20 18
14 17 19 18 18 19 18 18 16 15 17 12 10 10 12 13 11 9 8 9 12 15 18 19 17 18 21 22 21 25 20 10 14 13 3 10 16 19 21 21 18 21 22
Wind_Direction
136 149 163 161 165 168 171 170 167 161 157 151 150 147 141 138 138 133 129 125 121 119 114 106 99 93 91 91 92 96 95 87 87 73 74 73 66 60 60 66 55 50 51
141 149 162 164 167 173 177 178 175 167 163 157 156 152 146 141 141 139 136 131 125 118 110 107 105 100 97 96 99 107 103 94 85 90 95 65 62 60 58 57 57 51 52
137 150 158 165 168 174 185 185 184 174 169 164 162 157 152 146 145 143 141 136 129 120 114 109 106 103 103 104 113 112 113 95 91 91 134 53 55 61 60 56 57 50 47
137 147 156 166 168 173 184 188 185 180 175 171 168 162 157 152 149 148 147 141 132 124 121 115 110 104 108 110 128 123 109 93 84 63 47 53 55 60 59 60 58 51 47
138 146 165 164 169 173 177 178 181 183 180 177 173 168 163 160 155 153 152 145 139 129 127 121 113 106 118 130 135 129 111 99 73 54 55 60 61 64 56 63 53 51 42
142 145 166 167 170 171 173 176 182 183 183 181 178 174 169 167 161 157 157 151 147 137 133 126 113 110 128 149 145 130 112 113 113 63 65 60 70 78 68 62 54 49 43
140 141 155 169 172 173 174 181 184 187 185 185 184 180 177 173 171 165 161 158 152 148 142 133 118 121 128 148 146 132 121 77 31 68 70 69 76 80 72 65 56 54 49
138 144 156 169 177 180 181 182 188 192 193 191 191 190 186 180 178 174 168 166 161 157 152 141 131 137 144 145 146 139 129 114 55 73 77 75 83 79 74 68 61 54 49
142 147 157 164 174 182 189 192 193 194 196 198 199 198 193 186 185 185 178 173 173 164 161 153 144 149 150 146 147 141 137 111 32 77 87 83 93 84 80 74 69 61 52
158 153 162 170 173 175 184 193 197 200 201 203 203 200 197 193 191 192 188 183 182 177 172 163 156 153 155 156 155 149 144 118 108 105 85 99 102 92 86 85 77 62 53
170 158 170 174 176 180 178 190 192 198 201 202 201 199 199 191 197 209 197 212 191 188 182 177 167 163 164 163 167 165 172 174 123 90 105 112 112 105 96 93 80 66 51
169 178 188 185 170 185 177 176 186 192 194 197 200 200 196 206 200 205 191 207 203 197 194 190 184 181 172 181 183 179 213 203 144 122 133 126 123 114 108 105 89 72 59
201 190 203 170 181 197 191 183 188 197 199 201 201 202 206 206 203 202 187 199 202 203 202 200 199 195 207 191 190 189 204 207 159 139 148 140 137 128 120 114 96 76 70
234 235 192 177 200 218 210 198 209 203 195 202 206 205 210 218 208 211 214 198 201 205 212 198 207 212 227 189 196 208 207 189 181 160 159 151 149 143 137 125 113 85 80
287 216 220 216 191 217 226 213 221 225 200 211 193 203 210 212 217 216 221 222 201 208 209 212 226 208 221 224 190 215 194 190 167 166 165 165 162 157 151 144 133 103 96
256 255 230 187 194 217 221 236 221 231 253 201 215 205 205 215 215 216 220 221 227 224 220 219 218 221 227 228 216 209 229 189 177 179 175 173 174 171 163 155 150 130 108
234 231 226 208 190 213 215 214 221 240 223 258 202 203 208 208 215 217 219 223 226 226 234 226 228 222 232 238 246 202 230 197 180 181 183 175 182 185 179 172 171 150 126
227 200 218 221 195 195 213 210 217 222 216 207 207 221 207 212 212 212 221 227 236 229 223 230 227 233 231 238 241 225 229 205 176 184 194 187 180 194 194 189 183 173 153
218 215 210 212 227 175 194 194 204 184 206 205 215 196 196 203 212 214 216 224 230 230 241 233 233 231 236 234 237 234 228 227 188 177 195 202 200 195 195 201 189 189 180
214 209 209 201 204 181 183 190 200 194 211 205 204 210 191 203 202 215 221 225 232 232 243 233 231 247 247 240 240 231 244 230 193 182 206 205 211 211 208 183 197 200 197
217 205 200 195 185 187 189 193 201 208 206 221 221 172 188 203 203 213 229 227 235 241 244 256 254 236 253 255 257 148 239 263 230 216 207 211 213 209 209 195 210 197 197
213 206 197 194 181 193 202 211 224 208 194 200 197 176 205 202 204 210 219 223 231 240 243 252 245 241 253 240 209 219 230 240 233 219 216 216 214 209 213 213 219 200 191
210 203 199 196 186 193 208 201 208 215 243 196 232 219 213 220 228 226 232 241 227 227 245 239 240 237 238 264 224 206 212 226 209 208 213 218 213 205 218 211 217 212 200
205 206 204 199 192 195 207 199 201 209 214 222 214 201 174 195 228 232 235 243 241 246 244 230 234 233 232 253 226 222 241 261 185 179 217 218 213 206 215 216 211 211 198
211 202 201 196 194 198 198 217 200 222 224 238 225 203 203 241 235 242 251 251 248 247 248 246 232 232 237 241 245 248 257 264 261 245 205 207 214 212 213 219 210 205 198
188 190 194 189 193 200 199 206 220 210 222 241 206 231 230 235 211 219 241 251 258 256 253 252 241 238 242 251 245 246 233 234 235 253 244 211 199 206 209 206 210 201 199